Terminal Aerodrome Forecast
Issued by NWS Billings, MT

Home | Current Version | Previous Version | Text Only | Print | Product List | Glossary Off
Versions: 1 2 3 4 5 6 7 8 9 10 11 12 13 14 15 16 17 18 19 20 21 22 23 24 25 26 27 28 29 30

000
FTUS45 KBYZ 210520
TAFMLS
TAF
KMLS 210520Z 2106/2206 02009KT P6SM SCT250
     FM211200 01008KT P6SM SCT080 BKN150
     FM212200 34008KT P6SM VCTS SCT090CB BKN250
     FM220200 36010KT P6SM VCSH SCT090 OVC250=

USA.gov is the U.S. government's official web portal to all federal, state and local government web resources and services.